TimeCDT,TemperatureF,Dew PointF,Humidity,Sea Level PressureIn,VisibilityMPH,Wind Direction,Wind SpeedMPH,Gust SpeedMPH,PrecipitationIn,Events,Conditions,WindDirDegrees,DateUTC
12:53 AM,73.9,72.0,93,29.97,6.0,ENE,3.5,-,N/A,,Partly Cloudy,70,2013-05-23 05:53:00
1:53 AM,73.0,72.0,96,29.96,4.0,ESE,3.5,-,N/A,,Clear,110,2013-05-23 06:53:00
2:27 AM,73.4,71.6,94,29.93,4.0,SE,3.5,-,N/A,,Mostly Cloudy,130,2013-05-23 07:27:00
2:30 AM,73.4,71.6,94,29.93,2.5,ESE,4.6,-,N/A,,Mostly Cloudy,120,2013-05-23 07:30:00
2:40 AM,73.4,71.6,94,29.93,3.0,Calm,Calm,-,N/A,,Mostly Cloudy,0,2013-05-23 07:40:00
2:48 AM,73.4,71.6,94,29.93,1.5,ESE,4.6,-,N/A,,Overcast,110,2013-05-23 07:48:00
2:53 AM,73.9,73.0,97,29.96,0.8,East,3.5,-,N/A,,Mist,100,2013-05-23 07:53:00
3:15 AM,73.4,71.6,94,29.93,2.0,Calm,Calm,-,N/A,,Overcast,0,2013-05-23 08:15:00
3:27 AM,73.4,71.6,94,29.94,0.8,Calm,Calm,-,N/A,,Mist,0,2013-05-23 08:27:00
3:43 AM,73.4,73.4,100,29.94,0.2,Calm,Calm,-,N/A,Fog,Fog,0,2013-05-23 08:43:00
3:53 AM,73.9,72.0,93,29.96,0.2,Calm,Calm,-,N/A,Fog,Fog,0,2013-05-23 08:53:00
4:43 AM,73.4,73.4,100,29.95,0.5,ENE,3.5,-,N/A,Fog,Fog,60,2013-05-23 09:43:00
4:53 AM,73.9,73.0,97,29.97,0.5,NE,4.6,-,N/A,Fog,Fog,50,2013-05-23 09:53:00
5:11 AM,73.4,73.4,100,29.95,0.2,ENE,3.5,-,N/A,Fog,Fog,70,2013-05-23 10:11:00
5:28 AM,73.4,73.4,100,29.95,0.5,East,4.6,-,N/A,Fog,Fog,80,2013-05-23 10:28:00
5:53 AM,73.9,73.9,100,29.99,0.5,East,3.5,-,N/A,Fog,Fog,80,2013-05-23 10:53:00
6:53 AM,73.9,73.9,100,30.00,0.5,East,4.6,-,N/A,Fog,Fog,90,2013-05-23 11:53:00
7:53 AM,75.0,75.0,100,30.02,1.0,ESE,5.8,-,N/A,,Overcast,120,2013-05-23 12:53:00
8:43 AM,77.0,75.2,94,30.01,1.0,South,8.1,-,N/A,,Mostly Cloudy,170,2013-05-23 13:43:00
8:53 AM,78.1,75.0,90,30.03,1.0,SSE,5.8,-,N/A,,Scattered Clouds,160,2013-05-23 13:53:00
9:02 AM,78.8,75.2,89,30.01,9.0,South,5.8,-,N/A,,Partly Cloudy,170,2013-05-23 14:02:00
9:29 AM,80.6,75.2,84,30.01,10.0,South,8.1,-,N/A,,Mostly Cloudy,170,2013-05-23 14:29:00
9:53 AM,82.9,73.9,74,30.03,10.0,South,8.1,-,N/A,,Mostly Cloudy,170,2013-05-23 14:53:00
10:53 AM,84.0,73.9,72,30.04,10.0,South,10.4,-,N/A,,Mostly Cloudy,180,2013-05-23 15:53:00
11:53 AM,84.9,73.0,67,30.06,10.0,South,8.1,-,N/A,,Mostly Cloudy,190,2013-05-23 16:53:00
12:53 PM,87.1,75.0,67,30.07,10.0,South,10.4,-,N/A,,Scattered Clouds,190,2013-05-23 17:53:00
1:53 PM,87.1,73.9,65,30.06,10.0,South,8.1,17.3,N/A,,Scattered Clouds,190,2013-05-23 18:53:00
2:53 PM,87.1,73.0,63,30.04,10.0,SW,10.4,-,N/A,,Partly Cloudy,220,2013-05-23 19:53:00
3:53 PM,87.1,72.0,61,30.03,10.0,SW,10.4,-,N/A,,Clear,220,2013-05-23 20:53:00
4:53 PM,84.9,72.0,65,30.01,10.0,SSW,9.2,17.3,N/A,,Scattered Clouds,200,2013-05-23 21:53:00
5:53 PM,84.9,72.0,65,30.01,10.0,South,8.1,-,N/A,,Clear,190,2013-05-23 22:53:00
6:53 PM,82.9,72.0,69,30.00,10.0,SSW,8.1,-,N/A,,Clear,200,2013-05-23 23:53:00
7:53 PM,80.1,73.0,79,30.01,10.0,SSE,4.6,-,N/A,,Clear,160,2013-05-24 00:53:00
8:53 PM,79.0,73.0,82,30.04,10.0,East,3.5,-,N/A,,Clear,90,2013-05-24 01:53:00
9:53 PM,78.1,73.0,84,30.06,10.0,ESE,3.5,-,N/A,,Scattered Clouds,120,2013-05-24 02:53:00
10:53 PM,75.0,73.0,94,30.07,9.0,SW,3.5,-,N/A,,Clear,220,2013-05-24 03:53:00
11:53 PM,75.0,72.0,90,30.09,10.0,Calm,Calm,-,N/A,,Clear,0,2013-05-24 04:53:00